Regional Weather Roundup
Issued by NWS

Home | Current Version | Previous Version | Graphics & Text | Print | Product List | Glossary On
Versions: 1 2 3 4 5 6 7 8 9 10 11 12 13 14 15 16 17 18 19 20 21 22 23 24 25 26 27 28 29 30 31 32 33 34 35 36 37 38 39 40 41 42 43 44 45 46 47 48 49 50
000
ASUS45 KTFX 121704
RWRMT
MONTANA HOURLY WEATHER ROUNDUP
NATIONAL WEATHER SERVICE GREAT FALLS MT
1104 AM MDT SAT JUL 12 2014

NOTE: "FAIR" INDICATES FEW OR NO CLOUDS BELOW 12000 FEET WITH NO
SIGNIFICANT WEATHER AND/OR OBSTRUCTIONS TO VISIBILITY.

* THESE STATIONS ARE NOT UNDER NWS QUALITY CONTROL. THEY DO NOT
   REPORT WEATHER SUCH AS PRECIPITATION OR FOG.

MTZ001>007-043-121800-
WEST OF THE DIVIDE
CITY           SKY/WX    TMP DP  RH WIND       PRES   REMARKS
KALISPELL      SUNNY     75  54  48 CALM      30.21F
MISSOULA       SUNNY     77  46  33 CALM      30.22S
BUTTE          SUNNY     72  50  46 CALM      30.33S
MULLAN PASS    SUNNY     70  45  41 VRB5      30.36S
* ESSEX        N/A       72  50  46 E1         N/A
* LINCOLN      N/A       69  49  49 NW3        N/A
* LOOKOUT PASS N/A       74  49  41 S6         N/A
* POLSON       N/A       76  57  52 NW2        N/A
* RONAN APT    SUNNY     75  57  54 N/A        N/A
* SEELEY LAKE  N/A       74  49  41 S2         N/A
* THOMP F APT  SUNNY     69  53  57 SW3        N/A
* YAAK HILL    N/A       75  50  42 SW2        N/A
$$

MTZ008-052>055-121800-
SOUTHWEST MONTANA
CITY           SKY/WX    TMP DP  RH WIND       PRES   REMARKS
W YELLOWSTONE  PTCLDY    64  50  61 CALM      30.39F
* THREE FORKS  SUNNY     70  48  46 N/A        N/A
* BOULDER HILL N/A       72  50  46 NE1        N/A
* MONIDA PASS  N/A       67  50  55 NE1G8      N/A
* RAYNOLDS PAS N/A       69  46  44 SE6        N/A
* WHITEHALL    N/A       75  58  56 SE5        N/A
* WISE RIVER   N/A       72  53  51 NE4        N/A
$$

MTZ009>010-012-014-046-048-049-054-121800-
EAST SLOPES AND CENTRAL MONTANA
CITY           SKY/WX    TMP DP  RH WIND       PRES   REMARKS
CUT BANK       SUNNY     73  54  51 VRB5      30.25S
GREAT FALLS    SUNNY     75  54  48 CALM      30.24S
HELENA         SUNNY     77  54  45 VRB6      30.24S
* CONRAD       SUNNY     73  61  66 N/A        N/A
* DEARBORN     N/A       76  55  48 N7         N/A
* EAST GLACIER N/A       75  38  26 W1         N/A
* MONARCH      N/A       70  43  38 N4G9       N/A
* SAINT MARY   N/A       73  47  40 NW3        N/A
* SWEET GRASS  N/A       73  59  62 VRB4       N/A
$$

MTZ011-013-016-021-035-040-045-047-050-051-121800-
NORTH CENTRAL MONTANA
CITY           SKY/WX    TMP DP  RH WIND       PRES   REMARKS
* CHESTER      N/A       77  53  43 NW5        N/A
* DENTON       N/A       77  51  40 N1G9       N/A
* JUDITH GAP   N/A       73  55  53 N14G19     N/A
* LOMA         N/A       76  55  48 S1         N/A
$$

MTZ017>020-022>027-061-062-121800-
NORTHEAST MONTANA
CITY           SKY/WX    TMP DP  RH WIND       PRES   REMARKS
GLENDIVE       SUNNY     77  55  47 N7        30.16S
JORDAN         SUNNY     81  52  37 N14G21    30.16S
SIDNEY         SUNNY     79  52  39 W6        30.14S
WOLF POINT     SUNNY     79  52  39 SW8       30.14S
* BEAVER HILL  N/A       75  59  58 W4         N/A
* CIRCLE       N/A       76  60  58 SW4G9      N/A
* LINDSAY DVD  N/A       73  57  57 NW8G14     N/A
* NAVAJO       N/A       72  50  46 NW15G20    N/A
* SACO         N/A       73  60  64 W6         N/A
$$

MTZ028>042-056>058-121800-
SOUTHCENTRAL AND SOUTHEAST MONTANA
CITY           SKY/WX    TMP DP  RH WIND       PRES   REMARKS
BAKER          SUNNY     75  59  58 VRB5      30.18R
BILLINGS       SUNNY     75  55  50 VRB3      30.24R
MILES CITY     SUNNY     77  61  58 W6        30.17R
* LAUREL APT   SUNNY     75  54  48 N/A        N/A
* ROUNDUP APT  SUNNY     77  52  42 N/A        N/A
* ALZADA       N/A       72  61  68 E2         N/A
* HYSHAM       N/A       77  53  43 N6         N/A
* LAME DEER    N/A       70  58  66 N7         N/A
* REED POINT   N/A       77  54  45 W4         N/A
* ROSCOE HILL  N/A       69  47  46 NW2G8      N/A
$$

REGIONAL REPORTS...DAKOTAS
CITY           SKY/WX    TMP DP  RH WIND       PRES   REMARKS
WILLISTON      SUNNY     79  54  42 W16       30.11S
DICKINSON      PTSUNNY   72  61  68 W7        30.14S
CROSBY         SUNNY     70  55  59 W17       30.10S
WATFORD CITY   SUNNY     75  55  50 W12       30.10S
BISMARCK       PTSUNNY   73  61  66 SW9       30.10F
GRAND FORKS    CLOUDY    73  59  62 SW10      30.01F
FARGO          CLOUDY    73  57  57 W8        30.03S
BUFFALO SD     PTCLDY    72  61  68 VRB5      30.12R
RAPID CITY     CLOUDY    64  61  90 SE7       30.19S
$$

REGIONAL REPORTS...WYOMING/IDAHO/WASHINGTON
CITY           SKY/WX    TMP DP  RH WIND       PRES   REMARKS
GILLETTE       PTCLDY    75  57  54 N12       30.23R
SHERIDAN       PTCLDY    75  57  54 NW12      30.24R
CODY           PTCLDY    73  54  51 NE12      30.29R
YELLOWSTONE LA PTCLDY    61  50  67 VRB5      30.49S
SALMON         PTCLDY    77  52  42 NW5       30.19F
MULLAN PASS    SUNNY     70  45  41 VRB5      30.36S
SAND POINT     SUNNY     77  46  33 NE12      30.16S
SPOKANE        SUNNY     79  48  34 E3        30.15S

$$




USA.gov is the U.S. government's official web portal to all federal, state and local government web resources and services.